| time (UTC) | temp F | wind direction | speed MPH | gust MPH | rain 1hr in | rain 24hr in | rain mn in | humidity % | barometer mb |
| 20260507152139 | 66 | 122 | 2.0 | 6.0 | 0.00 | 0.00 | 0.00 | 67 | 1008.6 |
| 20260507151644 | 65 | 80 | 4.0 | 9.0 | 0.00 | 0.00 | 0.00 | 70 | 1008.7 |
| 20260507151244 | 65 | 100 | 5.0 | 10.0 | 0.00 | 0.00 | 0.00 | 71 | 1008.5 |
| 20260507150824 | 66 | 119 | 5.0 | 8.0 | 0.00 | 0.00 | 0.00 | 67 | 1008.6 |
| 20260507150409 | 66 | 111 | 6.0 | 6.0 | 0.00 | 0.00 | 0.00 | 67 | 1008.6 |
| 20260507145924 | 65 | 116 | 6.0 | 9.0 | 0.00 | 0.00 | 0.00 | 68 | 1008.7 |
| 20260507145451 | 64 | 139 | 5.0 | 9.0 | 0.00 | 0.00 | 0.00 | 71 | 1008.7 |
| 20260507145024 | 65 | 145 | 8.0 | 11.0 | 0.00 | 0.00 | 0.00 | 71 | 1008.6 |
| 20260507144554 | 65 | 107 | 6.0 | 8.0 | 0.00 | 0.00 | 0.00 | 71 | 1008.7 |
| 20260507144131 | 65 | 98 | 3.0 | 10.0 | 0.00 | 0.00 | 0.00 | 72 | 1008.8 |
| 20260507143654 | 65 | 131 | 5.0 | 9.0 | 0.00 | 0.00 | 0.00 | 73 | 1008.8 |
| 20260507143219 | 66 | 98 | 3.0 | 9.0 | 0.00 | 0.00 | 0.00 | 73 | 1009.0 |
| 20260507142729 | 66 | 121 | 5.0 | 6.0 | 0.00 | 0.00 | 0.00 | 72 | 1008.9 |
| 20260507142234 | 65 | 123 | 7.0 | 10.0 | 0.00 | 0.00 | 0.00 | 75 | 1009.0 |
| 20260507141754 | 65 | 153 | 5.0 | 9.0 | 0.00 | 0.00 | 0.00 | 75 | 1008.9 |
| 20260507141324 | 64 | 93 | 6.0 | 9.0 | 0.00 | 0.00 | 0.00 | 76 | 1009.0 |
| 20260507140909 | 65 | 145 | 7.0 | 11.0 | 0.00 | 0.00 | 0.00 | 74 | 1009.1 |
| 20260507140431 | 65 | 137 | 3.0 | 6.0 | 0.00 | 0.00 | 0.00 | 75 | 1009.1 |
| 20260507135939 | 66 | 128 | 5.0 | 10.0 | 0.00 | 0.00 | 0.00 | 74 | 1009.1 |
| 20260507135439 | 66 | 144 | 2.0 | 8.0 | 0.00 | 0.00 | 0.00 | 73 | 1009.3 |
| 20260507135033 | 66 | 130 | 4.0 | 6.0 | 0.00 | 0.00 | 0.00 | 73 | 1009.1 |
| 20260507134549 | 67 | 125 | 5.0 | 8.0 | 0.00 | 0.00 | 0.00 | 71 | 1009.4 |
| 20260507134054 | 66 | 63 | 6.0 | 10.0 | 0.00 | 0.00 | 0.00 | 73 | 1009.5 |
| 20260507133126 | 65 | 144 | 4.0 | 10.0 | 0.00 | 0.00 | 0.00 | 61 | 1009.5 |
| 20260507132704 | 64 | 138 | 7.0 | 10.0 | 0.00 | 0.00 | 0.00 | 62 | 1009.6 |
| 20260507132244 | 64 | 141 | 4.0 | 6.0 | 0.00 | 0.00 | 0.00 | 75 | 1009.7 |
| 20260507131824 | 65 | 136 | 5.0 | 9.0 | 0.00 | 0.00 | 0.00 | 75 | 1009.8 |
| 20260507131334 | 67 | 101 | 3.0 | 9.0 | 0.00 | 0.00 | 0.00 | 73 | 1009.5 |
| 20260507130909 | 68 | 63 | 4.0 | 6.0 | 0.00 | 0.00 | 0.00 | 66 | 1009.6 |
| 20260507130447 | 67 | 164 | 4.0 | 6.0 | 0.00 | 0.00 | 0.00 | 67 | 1009.7 |
| 20260507125949 | 66 | 164 | 4.0 | 11.0 | 0.00 | 0.00 | 0.00 | 70 | 1009.7 |
| 20260507125534 | 66 | 152 | 4.0 | 9.0 | 0.00 | 0.00 | 0.00 | 71 | 1009.5 |
| 20260507125109 | 66 | 112 | 3.0 | 10.0 | 0.00 | 0.00 | 0.00 | 72 | 1009.5 |
| 20260507124624 | 66 | 145 | 6.0 | 9.0 | 0.00 | 0.00 | 0.00 | 73 | 1009.8 |
| 20260507124149 | 66 | 153 | 3.0 | 6.0 | 0.00 | 0.00 | 0.00 | 73 | 1009.8 |
| 20260507123659 | 67 | 140 | 3.0 | 8.0 | 0.00 | 0.00 | 0.00 | 73 | 1009.8 |
| 20260507123204 | 67 | 215 | 3.0 | 10.0 | 0.00 | 0.00 | 0.00 | 73 | 1010.0 |
| 20260507122729 | 66 | 134 | 2.0 | 6.0 | 0.00 | 0.00 | 0.00 | 75 | 1010.1 |
| 20260507122324 | 65 | 155 | 7.0 | 15.0 | 0.00 | 0.00 | 0.00 | 76 | 1010.0 |
| 20260507121824 | 68 | 127 | 3.0 | 5.0 | 0.00 | 0.00 | 0.00 | 71 | 1010.0 |
| 20260507121408 | 67 | 140 | 2.0 | 5.0 | 0.00 | 0.00 | 0.00 | 72 | 1009.9 |
| 20260507120919 | 66 | 164 | 6.0 | 12.0 | 0.00 | 0.00 | 0.00 | 74 | 1009.9 |
| 20260507120454 | 65 | 172 | 6.0 | 14.0 | 0.00 | 0.00 | 0.00 | 74 | 1010.1 |
| 20260507120017 | 66 | 147 | 10.0 | 13.0 | 0.00 | 0.00 | 0.00 | 72 | 1010.0 |
| 20260507115524 | 66 | 116 | 3.0 | 11.0 | 0.00 | 0.00 | 0.00 | 72 | 1010.0 |
| 20260507115047 | 66 | 176 | 8.0 | 12.0 | 0.00 | 0.00 | 0.00 | 71 | 1010.0 |
| 20260507114619 | 66 | 152 | 5.0 | 12.0 | 0.00 | 0.00 | 0.00 | 73 | 1009.9 |
| 20260507114119 | 66 | 132 | 5.0 | 10.0 | 0.00 | 0.00 | 0.00 | 71 | 1009.8 |
| 20260507113619 | 66 | 151 | 12.0 | 15.0 | 0.00 | 0.00 | 0.00 | 72 | 1009.7 |
| 20260507113155 | 66 | 150 | 3.0 | 11.0 | 0.00 | 0.00 | 0.00 | 72 | 1009.9 |
| 20260507112704 | 66 | 126 | 5.0 | 14.0 | 0.00 | 0.00 | 0.00 | 72 | 1009.8 |
| 20260507112254 | 67 | 181 | 6.0 | 12.0 | 0.00 | 0.00 | 0.00 | 71 | 1009.7 |
| 20260507111809 | 67 | 169 | 4.0 | 10.0 | 0.00 | 0.00 | 0.00 | 72 | 1009.7 |
| 20260507111309 | 67 | 144 | 10.0 | 11.0 | 0.00 | 0.00 | 0.00 | 73 | 1009.7 |
| 20260507110819 | 67 | 139 | 10.0 | 14.0 | 0.00 | 0.00 | 0.00 | 72 | 1009.7 |
| 20260507110414 | 67 | 151 | 7.0 | 11.0 | 0.00 | 0.00 | 0.00 | 74 | 1009.8 |
| 20260507105949 | 67 | 132 | 7.0 | 13.0 | 0.00 | 0.00 | 0.00 | 73 | 1009.9 |
| 20260507105539 | 67 | 164 | 6.0 | 11.0 | 0.00 | 0.00 | 0.00 | 73 | 1009.8 |
| 20260507105039 | 66 | 181 | 4.0 | 11.0 | 0.00 | 0.00 | 0.00 | 76 | 1009.8 |
| 20260507104614 | 65 | 130 | 13.0 | 15.0 | 0.00 | 0.00 | 0.00 | 78 | 1009.8 |
| 20260507104149 | 65 | 149 | 11.0 | 14.0 | 0.00 | 0.00 | 0.00 | 80 | 1009.9 |
| 20260507103649 | 65 | 133 | 5.0 | 12.0 | 0.00 | 0.00 | 0.00 | 84 | 1009.5 |
| 20260507103214 | 66 | 171 | 8.0 | 12.0 | 0.00 | 0.00 | 0.00 | 84 | 1009.9 |
| 20260507102804 | 65 | 117 | 2.0 | 8.0 | 0.00 | 0.00 | 0.00 | 86 | 1009.7 |
| 20260507102359 | 65 | 102 | 9.0 | 11.0 | 0.00 | 0.00 | 0.00 | 85 | 1009.8 |
| 20260507101924 | 65 | 138 | 6.0 | 10.0 | 0.00 | 0.00 | 0.00 | 85 | 1009.7 |
| 20260507101429 | 65 | 109 | 5.0 | 8.0 | 0.00 | 0.00 | 0.00 | 84 | 1009.5 |
| 20260507101014 | 65 | 95 | 5.0 | 8.0 | 0.00 | 0.00 | 0.00 | 83 | 1009.6 |
| 20260507100517 | 64 | 134 | 1.0 | 10.0 | 0.00 | 0.00 | 0.00 | 86 | 1009.6 |
| 20260507100054 | 65 | 85 | 7.0 | 10.0 | 0.00 | 0.00 | 0.00 | 82 | 1009.8 |
| 20260507095648 | 65 | 71 | 4.0 | 6.0 | 0.00 | 0.00 | 0.00 | 82 | 1009.6 |
| 20260507095234 | 65 | 119 | 4.0 | 6.0 | 0.00 | 0.00 | 0.00 | 82 | 1009.6 |
| 20260507094754 | 64 | 163 | 3.0 | 8.0 | 0.00 | 0.00 | 0.00 | 84 | 1009.8 |
| 20260507094352 | 64 | 52 | 1.0 | 10.0 | 0.00 | 0.00 | 0.00 | 84 | 1009.7 |
| 20260507093919 | 65 | 154 | 5.0 | 9.0 | 0.00 | 0.00 | 0.00 | 82 | 1009.5 |
| 20260507093419 | 65 | 92 | 4.0 | 6.0 | 0.00 | 0.00 | 0.00 | 78 | 1009.8 |
| 20260507092919 | 64 | 109 | 6.0 | 8.0 | 0.00 | 0.00 | 0.00 | 80 | 1009.6 |
| 20260507092004 | 66 | 133 | 3.0 | 4.0 | 0.00 | 0.00 | 0.00 | 80 | 1009.7 |
| 20260507091534 | 65 | 108 | 3.0 | 4.0 | 0.00 | 0.00 | 0.00 | 81 | 1009.6 |
| 20260507091049 | 64 | 139 | 2.0 | 3.0 | 0.00 | 0.00 | 0.00 | 82 | 1009.8 |
| 20260507090619 | 65 | 147 | 3.0 | 4.0 | 0.00 | 0.00 | 0.00 | 81 | 1009.6 |
| 20260507090129 | 65 | 151 | 3.0 | 5.0 | 0.00 | 0.00 | 0.00 | 81 | 1009.7 |
| 20260507085646 | 64 | 139 | 0.0 | 5.0 | 0.00 | 0.00 | 0.00 | 82 | 1009.5 |
| 20260507085239 | 64 | 102 | 3.0 | 6.0 | 0.00 | 0.00 | 0.00 | 82 | 1009.6 |
| 20260507084759 | 64 | 128 | 2.0 | 3.0 | 0.00 | 0.00 | 0.00 | 83 | 1009.9 |
| 20260507084259 | 64 | 137 | 4.0 | 5.0 | 0.00 | 0.00 | 0.00 | 82 | 1009.6 |
| 20260507083826 | 64 | 203 | 4.0 | 5.0 | 0.00 | 0.00 | 0.00 | 83 | 1009.5 |
| 20260507083349 | 64 | 159 | 3.0 | 5.0 | 0.00 | 0.00 | 0.00 | 83 | 1009.5 |
| 20260507082914 | 64 | 202 | 3.0 | 5.0 | 0.00 | 0.00 | 0.00 | 85 | 1009.7 |
| 20260507082514 | 64 | 176 | 3.0 | 6.0 | 0.00 | 0.00 | 0.00 | 85 | 1009.5 |
| 20260507082054 | 64 | 142 | 4.0 | 5.0 | 0.00 | 0.00 | 0.00 | 84 | 1009.7 |
| 20260507081644 | 65 | 142 | 2.0 | 3.0 | 0.00 | 0.00 | 0.00 | 84 | 1009.6 |
| 20260507081214 | 64 | 102 | 0.0 | 3.0 | 0.00 | 0.00 | 0.00 | 84 | 1009.8 |
| 20260507080744 | 64 | 129 | 3.0 | 5.0 | 0.00 | 0.00 | 0.00 | 83 | 1009.6 |
| 20260507080259 | 64 | 109 | 0.0 | 3.0 | 0.00 | 0.00 | 0.00 | 83 | 1009.8 |
| 20260507075814 | 65 | 101 | 1.0 | 2.0 | 0.00 | 0.00 | 0.00 | 82 | 1009.5 |
| 20260507075355 | 63 | 135 | 2.0 | 3.0 | 0.00 | 0.00 | 0.00 | 84 | 1009.5 |
| 20260507074909 | 63 | 140 | 3.0 | 6.0 | 0.00 | 0.00 | 0.00 | 84 | 1009.5 |
| 20260507074439 | 63 | 131 | 4.0 | 5.0 | 0.00 | 0.00 | 0.00 | 84 | 1009.5 |
| 20260507074029 | 63 | 108 | 2.0 | 5.0 | 0.00 | 0.00 | 0.00 | 83 | 1009.5 |
| 20260507073539 | 63 | 107 | 1.0 | 3.0 | 0.00 | 0.00 | 0.00 | 83 | 1009.5 |
| 20260507073114 | 63 | 132 | 1.0 | 3.0 | 0.00 | 0.00 | 0.00 | 83 | 1009.2 |
| 20260507072647 | 63 | 101 | 0.0 | 3.0 | 0.00 | 0.00 | 0.00 | 83 | 1009.4 |
| 20260507072224 | 63 | 135 | 2.0 | 3.0 | 0.00 | 0.00 | 0.00 | 83 | 1009.5 |
| 20260507071749 | 63 | 113 | 2.0 | 2.0 | 0.00 | 0.00 | 0.00 | 83 | 1009.5 |
| 20260507071314 | 63 | 108 | 1.0 | 3.0 | 0.00 | 0.00 | 0.00 | 83 | 1009.5 |
| 20260507070854 | 63 | 109 | 0.0 | 1.0 | 0.00 | 0.00 | 0.00 | 83 | 1009.5 |
| 20260507070419 | 62 | 106 | 0.0 | 3.0 | 0.00 | 0.00 | 0.00 | 83 | 1009.5 |
| 20260507070005 | 63 | 124 | 2.0 | 3.0 | 0.00 | 0.00 | 0.00 | 83 | 1009.5 |
| 20260507065514 | 63 | 138 | 0.0 | 0.0 | 0.00 | 0.00 | 0.00 | 83 | 1009.4 |
| 20260507065054 | 63 | 156 | 1.0 | 2.0 | 0.00 | 0.00 | 0.00 | 82 | 1009.5 |
| 20260507064614 | 63 | 103 | 0.0 | 2.0 | 0.00 | 0.00 | 0.00 | 82 | 1009.5 |
| 20260507064119 | 63 | 157 | 2.0 | 2.0 | 0.00 | 0.00 | 0.00 | 82 | 1009.5 |
| 20260507063624 | 63 | 81 | 0.0 | 1.0 | 0.00 | 0.00 | 0.00 | 82 | 1009.3 |
| 20260507063155 | 62 | 96 | 0.0 | 0.0 | 0.00 | 0.00 | 0.00 | 82 | 1009.3 |
| 20260507062754 | 62 | 90 | 0.0 | 1.0 | 0.00 | 0.00 | 0.00 | 82 | 1009.2 |
| 20260507062259 | 62 | 104 | 0.0 | 1.0 | 0.00 | 0.00 | 0.00 | 82 | 1009.2 |
| 20260507061829 | 62 | 76 | 0.0 | 2.0 | 0.00 | 0.00 | 0.00 | 82 | 1009.1 |
| 20260507061359 | 62 | 112 | 0.0 | 1.0 | 0.00 | 0.00 | 0.00 | 82 | 1009.0 |
| 20260507060939 | 62 | 133 | 2.0 | 3.0 | 0.00 | 0.00 | 0.00 | 82 | 1008.8 |
| 20260507060520 | 62 | 82 | 0.0 | 0.0 | 0.00 | 0.00 | 0.00 | 82 | 1008.9 |
| 20260507060104 | 62 | 87 | 0.0 | 0.0 | 0.00 | 0.00 | 0.00 | 82 | 1008.6 |
| 20260507055649 | 62 | 120 | 0.0 | 1.0 | 0.00 | 0.00 | 0.00 | 82 | 1008.7 |
| 20260507055244 | 62 | 96 | 0.0 | 0.0 | 0.00 | 0.00 | 0.00 | 82 | 1008.6 |
| 20260507054834 | 62 | 92 | 0.0 | 2.0 | 0.00 | 0.00 | 0.00 | 82 | 1008.5 |
| 20260507054354 | 61 | 91 | 0.0 | 0.0 | 0.00 | 0.00 | 0.00 | 82 | 1008.6 |
| 20260507053914 | 61 | 97 | 0.0 | 1.0 | 0.00 | 0.00 | 0.00 | 82 | 1008.2 |
| 20260507053459 | 61 | 85 | 0.0 | 0.0 | 0.00 | 0.00 | 0.00 | 82 | 1008.2 |
| 20260507053044 | 61 | 97 | 0.0 | 0.0 | 0.00 | 0.00 | 0.00 | 82 | 1008.2 |
| 20260507052629 | 62 | 88 | 0.0 | 0.0 | 0.00 | 0.00 | 0.00 | 82 | 1008.2 |
| 20260507052154 | 62 | 101 | 0.0 | 0.0 | 0.00 | 0.00 | 0.00 | 82 | 1008.5 |
| 20260507051747 | 61 | 93 | 0.0 | 0.0 | 0.00 | 0.00 | 0.00 | 82 | 1008.2 |
| 20260507050804 | 61 | 115 | 0.0 | 0.0 | 0.00 | 0.00 | 0.00 | 82 | 1008.3 |
| 20260507050343 | 61 | 90 | 0.0 | 0.0 | 0.00 | 0.00 | 0.00 | 82 | 1008.3 |
| 20260507045854 | 61 | 89 | 0.0 | 1.0 | 0.00 | 0.00 | 0.00 | 82 | 1008.0 |
| 20260507045359 | 61 | 92 | 0.0 | 0.0 | 0.00 | 0.00 | 0.00 | 82 | 1008.1 |
| 20260507044929 | 61 | 100 | 0.0 | 0.0 | 0.00 | 0.00 | 0.00 | 82 | 1008.1 |
| 20260507044444 | 62 | 81 | 0.0 | 0.0 | 0.00 | 0.00 | 0.00 | 83 | 1008.2 |
| 20260507044044 | 61 | 82 | 0.0 | 0.0 | 0.00 | 0.00 | 0.00 | 83 | 1008.1 |
| 20260507043604 | 61 | 97 | 0.0 | 0.0 | 0.00 | 0.00 | 0.00 | 83 | 1008.0 |
| 20260507043143 | 61 | 87 | 0.0 | 1.0 | 0.00 | 0.00 | 0.00 | 83 | 1008.0 |
| 20260507042714 | 62 | 92 | 0.0 | 0.0 | 0.00 | 0.00 | 0.00 | 84 | 1008.0 |
| 20260507042244 | 62 | 104 | 0.0 | 0.0 | 0.00 | 0.00 | 0.00 | 84 | 1008.0 |
| 20260507041748 | 61 | 105 | 0.0 | 1.0 | 0.00 | 0.00 | 0.00 | 84 | 1008.1 |
| 20260507041259 | 62 | 90 | 0.0 | 1.0 | 0.00 | 0.00 | 0.00 | 84 | 1008.2 |
| 20260507040809 | 62 | 101 | 0.0 | 1.0 | 0.00 | 0.00 | 0.00 | 84 | 1008.0 |
| 20260507040324 | 61 | 91 | 0.0 | 1.0 | 0.00 | 0.00 | 0.00 | 84 | 1008.0 |
| 20260507035834 | 61 | 83 | 1.0 | 1.0 | 0.00 | 0.00 | 0.00 | 84 | 1008.2 |
| 20260507035414 | 61 | 69 | 0.0 | 0.0 | 0.00 | 0.00 | 0.00 | 85 | 1008.1 |
| 20260507034929 | 61 | 80 | 0.0 | 1.0 | 0.00 | 0.00 | 0.00 | 85 | 1007.9 |
| 20260507034529 | 61 | 94 | 0.0 | 0.0 | 0.00 | 0.00 | 0.00 | 85 | 1007.9 |
| 20260507034114 | 61 | 73 | 0.0 | 2.0 | 0.00 | 0.00 | 0.00 | 85 | 1007.9 |
| 20260507033659 | 61 | 63 | 1.0 | 2.0 | 0.00 | 0.00 | 0.00 | 85 | 1007.9 |
| 20260507033219 | 61 | 87 | 0.0 | 0.0 | 0.00 | 0.00 | 0.00 | 86 | 1008.1 |
| 20260507032814 | 61 | 82 | 0.0 | 0.0 | 0.00 | 0.00 | 0.00 | 86 | 1008.1 |
| 20260507032354 | 61 | 71 | 0.0 | 1.0 | 0.00 | 0.00 | 0.00 | 86 | 1008.1 |
| 20260507031914 | 61 | 97 | 0.0 | 1.0 | 0.00 | 0.00 | 0.00 | 86 | 1008.1 |
| 20260507031504 | 61 | 83 | 0.0 | 1.0 | 0.00 | 0.00 | 0.00 | 86 | 1007.9 |
| 20260507031054 | 61 | 81 | 0.0 | 0.0 | 0.00 | 0.00 | 0.00 | 87 | 1008.2 |
| 20260507030559 | 61 | 64 | 1.0 | 2.0 | 0.00 | 0.00 | 0.00 | 87 | 1008.1 |
| 20260507030159 | 61 | 77 | 0.0 | 2.0 | 0.00 | 0.00 | 0.00 | 87 | 1008.0 |
| 20260507025704 | 60 | 73 | 1.0 | 2.0 | 0.00 | 0.00 | 0.00 | 87 | 1008.5 |
| 20260507025234 | 60 | 92 | 0.0 | 1.0 | 0.00 | 0.00 | 0.00 | 87 | 1008.2 |
| 20260507024824 | 60 | 74 | 0.0 | 1.0 | 0.00 | 0.00 | 0.00 | 87 | 1008.2 |
| 20260507024419 | 60 | 54 | 1.0 | 2.0 | 0.00 | 0.00 | 0.00 | 87 | 1008.1 |
| 20260507023939 | 60 | 69 | 1.0 | 2.0 | 0.00 | 0.00 | 0.00 | 87 | 1008.3 |
| 20260507023444 | 60 | 90 | 0.0 | 2.0 | 0.00 | 0.00 | 0.00 | 87 | 1008.1 |
| 20260507023033 | 60 | 76 | 0.0 | 2.0 | 0.00 | 0.00 | 0.00 | 87 | 1008.2 |
| 20260507022604 | 60 | 90 | 0.0 | 2.0 | 0.00 | 0.00 | 0.00 | 87 | 1008.1 |
| 20260507022139 | 61 | 77 | 0.0 | 1.0 | 0.00 | 0.00 | 0.00 | 87 | 1007.9 |
| 20260507021739 | 60 | 99 | 0.0 | 2.0 | 0.00 | 0.00 | 0.00 | 87 | 1007.9 |
| 20260507021249 | 61 | 76 | 0.0 | 1.0 | 0.00 | 0.00 | 0.00 | 87 | 1008.1 |
| 20260507020753 | 61 | 42 | 1.0 | 2.0 | 0.00 | 0.00 | 0.00 | 87 | 1008.1 |
| 20260507020324 | 61 | 44 | 1.0 | 2.0 | 0.00 | 0.00 | 0.00 | 87 | 1008.1 |
| 20260507015844 | 61 | 62 | 1.0 | 2.0 | 0.00 | 0.00 | 0.00 | 86 | 1008.2 |
| 20260507015419 | 61 | 66 | 1.0 | 2.0 | 0.00 | 0.00 | 0.00 | 86 | 1008.1 |
| 20260507015004 | 61 | 62 | 0.0 | 0.0 | 0.00 | 0.00 | 0.00 | 87 | 1008.0 |
| 20260507014554 | 61 | 79 | 0.0 | 1.0 | 0.00 | 0.00 | 0.00 | 87 | 1008.2 |
| 20260507014146 | 61 | 95 | 0.0 | 2.0 | 0.00 | 0.00 | 0.00 | 87 | 1008.2 |
| 20260507013714 | 61 | 76 | 1.0 | 2.0 | 0.00 | 0.00 | 0.00 | 87 | 1008.0 |
| 20260507013249 | 61 | 85 | 1.0 | 2.0 | 0.00 | 0.00 | 0.00 | 87 | 1008.5 |
| 20260507012754 | 61 | 45 | 1.0 | 3.0 | 0.00 | 0.00 | 0.00 | 87 | 1008.3 |
| 20260507012325 | 61 | 89 | 0.0 | 2.0 | 0.00 | 0.00 | 0.00 | 88 | 1008.2 |
| 20260507011854 | 60 | 60 | 1.0 | 2.0 | 0.00 | 0.00 | 0.00 | 88 | 1008.2 |
| 20260507011454 | 60 | 27 | 2.0 | 3.0 | 0.00 | 0.00 | 0.00 | 88 | 1008.3 |
| 20260507011039 | 61 | 95 | 0.0 | 1.0 | 0.00 | 0.00 | 0.00 | 88 | 1008.5 |
| 20260507010634 | 61 | 69 | 0.0 | 3.0 | 0.00 | 0.00 | 0.00 | 88 | 1008.3 |
| 20260507010139 | 61 | 53 | 1.0 | 2.0 | 0.00 | 0.00 | 0.00 | 89 | 1008.6 |
| 20260507005850 | 60 | 59 | 0.0 | 2.0 | 0.00 | 0.00 | 0.00 | 89 | 1008.6 |
| 20260507005420 | 60 | 79 | 0.0 | 2.0 | 0.00 | 0.00 | 0.00 | 89 | 1008.6 |
| 20260507004953 | 60 | 66 | 0.0 | 2.0 | 0.00 | 0.00 | 0.00 | 89 | 1008.6 |
| 20260507004540 | 60 | 54 | 1.0 | 3.0 | 0.00 | 0.00 | 0.00 | 89 | 1008.6 |
| 20260507004106 | 60 | 97 | 0.0 | 2.0 | 0.00 | 0.00 | 0.00 | 89 | 1008.7 |
| 20260507003613 | 60 | 30 | 1.0 | 2.0 | 0.00 | 0.00 | 0.00 | 90 | 1008.8 |
| 20260507003120 | 61 | 85 | 1.0 | 3.0 | 0.00 | 0.00 | 0.00 | 90 | 1008.7 |
| 20260507002620 | 61 | 55 | 0.0 | 2.0 | 0.00 | 0.00 | 0.00 | 90 | 1008.8 |
| 20260507002208 | 61 | 38 | 1.0 | 2.0 | 0.00 | 0.00 | 0.00 | 90 | 1008.9 |
| 20260507001745 | 61 | 81 | 0.0 | 0.0 | 0.00 | 0.00 | 0.00 | 91 | 1008.9 |
| 20260507001253 | 61 | 80 | 1.0 | 2.0 | 0.00 | 0.00 | 0.00 | 91 | 1009.0 |
| 20260507000823 | 60 | 86 | 0.0 | 0.0 | 0.00 | 0.00 | 0.00 | 91 | 1008.8 |
| 20260507000350 | 60 | 86 | 0.0 | 0.0 | 0.00 | 0.00 | 0.00 | 91 | 1008.8 |
| 20260506235943 | 61 | 97 | 0.0 | 0.0 | 0.00 | 0.00 | 0.00 | 91 | 1008.9 |
| 20260506235525 | 61 | 83 | 0.0 | 0.0 | 0.00 | 0.00 | 0.00 | 91 | 1009.0 |
| 20260506235120 | 61 | 81 | 0.0 | 0.0 | 0.00 | 0.00 | 0.00 | 91 | 1008.9 |
| 20260506234640 | 61 | 84 | 0.0 | 0.0 | 0.00 | 0.00 | 0.00 | 92 | 1009.0 |
| 20260506234150 | 61 | 45 | 1.0 | 2.0 | 0.00 | 0.00 | 0.00 | 92 | 1009.0 |
| 20260506233650 | 61 | 83 | 0.0 | 1.0 | 0.00 | 0.00 | 0.00 | 92 | 1009.1 |
| 20260506233220 | 61 | 98 | 0.0 | 1.0 | 0.00 | 0.00 | 0.00 | 92 | 1009.2 |
| 20260506232725 | 61 | 100 | 1.0 | 2.0 | 0.00 | 0.00 | 0.00 | 92 | 1009.2 |
| 20260506232245 | 61 | 72 | 1.0 | 4.0 | 0.00 | 0.00 | 0.00 | 92 | 1009.2 |
| 20260506231753 | 61 | 71 | 0.0 | 1.0 | 0.00 | 0.00 | 0.00 | 92 | 1009.3 |
| 20260506231333 | 61 | 96 | 0.0 | 2.0 | 0.00 | 0.00 | 0.00 | 93 | 1009.3 |
| 20260506230850 | 61 | 59 | 1.0 | 2.0 | 0.00 | 0.00 | 0.00 | 93 | 1009.3 |
| 20260506230443 | 62 | 79 | 0.0 | 2.0 | 0.00 | 0.00 | 0.00 | 93 | 1009.3 |
| 20260506230010 | 62 | 47 | 2.0 | 3.0 | 0.00 | 0.00 | 0.00 | 93 | 1009.3 |
| 20260506225525 | 62 | 62 | 2.0 | 2.0 | 0.00 | 0.00 | 0.00 | 93 | 1009.3 |
| 20260506225038 | 62 | 68 | 0.0 | 2.0 | 0.00 | 0.00 | 0.00 | 93 | 1009.4 |
| 20260506224633 | 62 | 87 | 0.0 | 2.0 | 0.00 | 0.00 | 0.00 | 93 | 1009.3 |
| 20260506224225 | 62 | 11 | 0.0 | 3.0 | 0.00 | 0.00 | 0.00 | 93 | 1009.2 |
| 20260506223725 | 62 | 72 | 1.0 | 3.0 | 0.00 | 0.00 | 0.00 | 93 | 1009.2 |
| 20260506223305 | 62 | 84 | 1.0 | 2.0 | 0.00 | 0.00 | 0.00 | 92 | 1009.3 |
| 20260506222830 | 62 | 84 | 1.0 | 2.0 | 0.00 | 0.00 | 0.00 | 92 | 1009.1 |
| 20260506222331 | 62 | 83 | 0.0 | 1.0 | 0.00 | 0.00 | 0.00 | 92 | 1009.3 |
| 20260506221850 | 62 | 94 | 1.0 | 4.0 | 0.00 | 0.00 | 0.00 | 92 | 1009.2 |
| 20260506221416 | 62 | 96 | 0.0 | 2.0 | 0.00 | 0.00 | 0.00 | 92 | 1009.2 |
| 20260506221005 | 62 | 96 | 0.0 | 2.0 | 0.00 | 0.00 | 0.00 | 92 | 1009.0 |
| 20260506220550 | 62 | 86 | 0.0 | 2.0 | 0.00 | 0.00 | 0.00 | 92 | 1009.2 |
| 20260506220115 | 62 | 79 | 0.0 | 1.0 | 0.00 | 0.00 | 0.00 | 92 | 1009.2 |
| 20260506215638 | 62 | 108 | 0.0 | 2.0 | 0.00 | 0.00 | 0.00 | 92 | 1009.2 |
| 20260506215215 | 62 | 83 | 0.0 | 2.0 | 0.00 | 0.00 | 0.00 | 92 | 1009.1 |
| 20260506214743 | 62 | 85 | 0.0 | 2.0 | 0.00 | 0.00 | 0.00 | 92 | 1009.1 |
| 20260506214338 | 62 | 86 | 0.0 | 3.0 | 0.00 | 0.00 | 0.00 | 91 | 1008.9 |
| 20260506213908 | 62 | 60 | 0.0 | 2.0 | 0.00 | 0.00 | 0.00 | 91 | 1009.1 |
| 20260506213500 | 62 | 108 | 1.0 | 2.0 | 0.00 | 0.00 | 0.00 | 91 | 1009.0 |
| 20260506213015 | 62 | 88 | 0.0 | 2.0 | 0.00 | 0.00 | 0.00 | 91 | 1009.2 |
| 20260506212545 | 63 | 83 | 1.0 | 3.0 | 0.00 | 0.00 | 0.00 | 91 | 1009.2 |
| 20260506212125 | 63 | 97 | 0.0 | 2.0 | 0.00 | 0.00 | 0.00 | 91 | 1009.0 |
| 20260506211705 | 62 | 96 | 1.0 | 2.0 | 0.00 | 0.00 | 0.00 | 91 | 1009.1 |
| 20260506211205 | 62 | 92 | 1.0 | 1.0 | 0.00 | 0.00 | 0.00 | 90 | 1009.0 |
| 20260506210710 | 62 | 99 | 0.0 | 1.0 | 0.00 | 0.00 | 0.00 | 90 | 1008.9 |
| 20260506210255 | 62 | 101 | 0.0 | 0.0 | 0.00 | 0.00 | 0.00 | 90 | 1009.0 |
| 20260506205830 | 62 | 103 | 0.0 | 0.0 | 0.00 | 0.00 | 0.00 | 90 | 1008.7 |
| 20260506205338 | 62 | 133 | 2.0 | 3.0 | 0.00 | 0.00 | 0.00 | 90 | 1008.7 |
| 20260506204858 | 62 | 124 | 3.0 | 5.0 | 0.00 | 0.00 | 0.00 | 90 | 1008.8 |
| 20260506204425 | 62 | 99 | 0.0 | 4.0 | 0.00 | 0.00 | 0.00 | 91 | 1008.8 |
| 20260506203950 | 63 | 105 | 1.0 | 3.0 | 0.00 | 0.00 | 0.00 | 91 | 1008.7 |
| 20260506203550 | 63 | 103 | 0.0 | 3.0 | 0.00 | 0.00 | 0.00 | 91 | 1008.6 |
| 20260506203105 | 63 | 106 | 0.0 | 1.0 | 0.00 | 0.00 | 0.00 | 91 | 1008.7 |
| 20260506202635 | 63 | 103 | 0.0 | 2.0 | 0.00 | 0.00 | 0.00 | 91 | 1008.3 |
| 20260506202210 | 63 | 93 | 1.0 | 2.0 | 0.00 | 0.00 | 0.00 | 91 | 1008.5 |
| 20260506201758 | 63 | 100 | 0.0 | 2.0 | 0.00 | 0.00 | 0.00 | 91 | 1008.3 |
| 20260506201345 | 63 | 140 | 2.0 | 4.0 | 0.00 | 0.00 | 0.00 | 91 | 1008.2 |
| 20260506200945 | 63 | 114 | 0.0 | 3.0 | 0.00 | 0.00 | 0.00 | 91 | 1008.1 |
| 20260506200525 | 63 | 106 | 1.0 | 2.0 | 0.00 | 0.00 | 0.00 | 90 | 1008.0 |
| 20260506200100 | 63 | 129 | 2.0 | 4.0 | 0.00 | 0.00 | 0.00 | 90 | 1008.0 |
| 20260506195648 | 63 | 101 | 0.0 | 2.0 | 0.00 | 0.00 | 0.00 | 90 | 1007.8 |
| 20260506195245 | 63 | 137 | 3.0 | 5.0 | 0.00 | 0.00 | 0.00 | 90 | 1007.9 |
| 20260506194825 | 63 | 123 | 2.0 | 3.0 | 0.00 | 0.00 | 0.00 | 89 | 1007.8 |
| 20260506194330 | 63 | 129 | 2.0 | 3.0 | 0.00 | 0.00 | 0.00 | 89 | 1007.6 |
| 20260506193915 | 63 | 128 | 0.0 | 2.0 | 0.00 | 0.00 | 0.00 | 89 | 1007.6 |
| 20260506193455 | 63 | 163 | 4.0 | 5.0 | 0.00 | 0.00 | 0.00 | 89 | 1007.5 |
| 20260506193048 | 63 | 105 | 2.0 | 5.0 | 0.00 | 0.00 | 0.00 | 88 | 1007.5 |
| 20260506192550 | 63 | 115 | 2.0 | 3.0 | 0.00 | 0.00 | 0.00 | 88 | 1007.4 |
| 20260506192100 | 64 | 108 | 0.0 | 3.0 | 0.00 | 0.00 | 0.00 | 87 | 1007.4 |
| 20260506191610 | 64 | 110 | 0.0 | 3.0 | 0.00 | 0.00 | 0.00 | 87 | 1007.4 |
| 20260506191120 | 64 | 135 | 2.0 | 3.0 | 0.00 | 0.00 | 0.00 | 86 | 1007.4 |
| 20260506190645 | 64 | 108 | 0.0 | 3.0 | 0.00 | 0.00 | 0.00 | 86 | 1007.4 |
| 20260506190215 | 64 | 97 | 0.0 | 2.0 | 0.00 | 0.00 | 0.00 | 86 | 1007.2 |
| 20260506185755 | 64 | 78 | 1.0 | 4.0 | 0.00 | 0.00 | 0.00 | 85 | 1007.2 |
| 20260506185258 | 64 | 102 | 1.0 | 4.0 | 0.00 | 0.00 | 0.00 | 84 | 1007.2 |
| 20260506184848 | 65 | 84 | 2.0 | 4.0 | 0.00 | 0.00 | 0.00 | 83 | 1007.0 |
| 20260506184405 | 65 | 118 | 1.0 | 5.0 | 0.00 | 0.00 | 0.00 | 81 | 1007.0 |
| 20260506183925 | 66 | 89 | 3.0 | 5.0 | 0.00 | 0.00 | 0.00 | 78 | 1006.8 |
| 20260506183500 | 66 | 109 | 2.0 | 3.0 | 0.00 | 0.00 | 0.00 | 76 | 1007.0 |
| 20260506183025 | 66 | 77 | 2.0 | 4.0 | 0.00 | 0.00 | 0.00 | 75 | 1006.8 |
| 20260506182619 | 66 | 88 | 1.0 | 4.0 | 0.00 | 0.00 | 0.00 | 75 | 1006.9 |
| 20260506182125 | 66 | 120 | 2.0 | 3.0 | 0.00 | 0.00 | 0.00 | 76 | 1006.8 |
| 20260506181635 | 66 | 115 | 4.0 | 5.0 | 0.00 | 0.00 | 0.00 | 77 | 1006.7 |
| 20260506181157 | 66 | 88 | 5.0 | 6.0 | 0.00 | 0.00 | 0.00 | 77 | 1006.6 |
| 20260506180725 | 67 | 125 | 3.0 | 8.0 | 0.00 | 0.00 | 0.00 | 75 | 1006.7 |
| 20260506180245 | 70 | 23 | 3.0 | 6.0 | 0.00 | 0.00 | 0.00 | 70 | 1006.5 |
| 20260506175830 | 72 | 83 | 1.0 | 2.0 | 0.00 | 0.00 | 0.00 | 57 | 1006.7 |
| 20260506175328 | 71 | 108 | 0.0 | 3.0 | 0.00 | 0.00 | 0.00 | 55 | 1006.5 |
| 20260506174850 | 72 | 108 | 1.0 | 4.0 | 0.00 | 0.00 | 0.00 | 52 | 1006.7 |
| 20260506174407 | 73 | 103 | 0.0 | 3.0 | 0.00 | 0.00 | 0.00 | 53 | 1006.7 |
| 20260506173940 | 73 | 111 | 1.0 | 3.0 | 0.00 | 0.00 | 0.00 | 49 | 1006.8 |
| 20260506173450 | 72 | 130 | 2.0 | 4.0 | 0.00 | 0.00 | 0.00 | 48 | 1006.7 |
| 20260506172954 | 72 | 151 | 6.0 | 9.0 | 0.00 | 0.00 | 0.00 | 47 | 1006.6 |
| 20260506172525 | 72 | 146 | 3.0 | 5.0 | 0.00 | 0.00 | 0.00 | 52 | 1006.5 |
| 20260506172030 | 72 | 118 | 3.0 | 5.0 | 0.00 | 0.00 | 0.00 | 54 | 1006.6 |
| 20260506171610 | 72 | 116 | 2.0 | 4.0 | 0.00 | 0.00 | 0.00 | 54 | 1006.7 |
| 20260506171145 | 73 | 103 | 0.0 | 4.0 | 0.00 | 0.00 | 0.00 | 47 | 1006.8 |
| 20260506170718 | 73 | 154 | 1.0 | 3.0 | 0.00 | 0.00 | 0.00 | 51 | 1006.6 |
| 20260506170305 | 73 | 145 | 2.0 | 6.0 | 0.00 | 0.00 | 0.00 | 46 | 1007.0 |
| 20260506165830 | 73 | 143 | 7.0 | 9.0 | 0.00 | 0.00 | 0.00 | 42 | 1006.8 |
| 20260506165425 | 73 | 109 | 0.0 | 5.0 | 0.00 | 0.00 | 0.00 | 39 | 1006.9 |
| 20260506164945 | 73 | 171 | 4.0 | 6.0 | 0.00 | 0.00 | 0.00 | 37 | 1006.8 |
| 20260506164500 | 73 | 169 | 6.0 | 9.0 | 0.00 | 0.00 | 0.00 | 36 | 1007.1 |
| 20260506164027 | 73 | 134 | 4.0 | 9.0 | 0.00 | 0.00 | 0.00 | 37 | 1006.7 |
| 20260506163605 | 74 | 152 | 7.0 | 9.0 | 0.00 | 0.00 | 0.00 | 38 | 1006.8 |
| 20260506163145 | 74 | 110 | 6.0 | 8.0 | 0.00 | 0.00 | 0.00 | 40 | 1006.8 |
| 20260506162710 | 75 | 135 | 2.0 | 4.0 | 0.00 | 0.00 | 0.00 | 36 | 1006.7 |
| 20260506162307 | 73 | 139 | 3.0 | 5.0 | 0.00 | 0.00 | 0.00 | 37 | 1007.0 |
| 20260506161905 | 73 | 145 | 4.0 | 5.0 | 0.00 | 0.00 | 0.00 | 38 | 1006.8 |
| 20260506161440 | 74 | 180 | 6.0 | 9.0 | 0.00 | 0.00 | 0.00 | 35 | 1006.8 |
| 20260506161005 | 74 | 126 | 2.0 | 6.0 | 0.00 | 0.00 | 0.00 | 34 | 1006.9 |
| 20260506160545 | 74 | 150 | 6.0 | 11.0 | 0.00 | 0.00 | 0.00 | 37 | 1006.9 |
| 20260506160050 | 75 | 148 | 3.0 | 5.0 | 0.00 | 0.00 | 0.00 | 38 | 1007.1 |
| 20260506155605 | 75 | 124 | 2.0 | 8.0 | 0.00 | 0.00 | 0.00 | 35 | 1007.1 |
| 20260506155110 | 74 | 170 | 3.0 | 8.0 | 0.00 | 0.00 | 0.00 | 36 | 1006.9 |
| 20260506154655 | 74 | 141 | 2.0 | 10.0 | 0.00 | 0.00 | 0.00 | 36 | 1007.1 |
| 20260506154207 | 74 | 196 | 3.0 | 4.0 | 0.00 | 0.00 | 0.00 | 34 | 1007.0 |
| 20260506153805 | 74 | 144 | 3.0 | 8.0 | 0.00 | 0.00 | 0.00 | 37 | 1007.0 |
| 20260506153310 | 75 | 126 | 4.0 | 10.0 | 0.00 | 0.00 | 0.00 | 41 | 1007.1 |
| 20260506152845 | 74 | 149 | 1.0 | 5.0 | 0.00 | 0.00 | 0.00 | 36 | 1007.2 |